Other Surface Observations
Issued by NWS

Home | Current Version | Previous Version | Text Only | Print | Product List | Glossary On
Versions: 1 2 3 4 5 6 7 8 9 10 11 12 13 14 15 16 17 18 19 20 21 22 23 24 25 26 27 28 29 30 31 32 33 34 35 36 37 38 39 40 41 42 43 44 45 46 47 48 49 50
000
SXUS52 KTAE 031510
OSOTAE
OSOTAE
North Florida/South Alabama/Southwest Georgia Weather Roundup
National Weather Service Tallahassee Florida
1000 AM EST SAT DEC 03 2016

Note: "fair" indicates few or no clouds below 12,000 feet with no
significant weather and/or obstructions to visibility.

!FLZ017-115-028-034-025-031600
...North Florida...

CITY           SKY/WX    TMP DP  RH WIND       PRES   REMARKS
TALLAHASSEE    CLOUDY    59  33  37 E12       30.25R
APALACHICOLA   CLOUDY    59  41  51 E9        30.22R
PERRY          SUNNY     58  36  43 NE6       30.24R
CROSS CITY     SUNNY     59  37  44 NE9       30.23R
JACKSONVILLE   PTSUNNY   56  42  59 N7        30.23S
$$

!FLZ112-006-005-002-011-031600
...Florida Panhandle...

CITY           SKY/WX    TMP DP  RH WIND       PRES   REMARKS
MARIANNA       CLOUDY    57  37  47 NE8       30.25R
BONIFAY        PTSUNNY   55  39  54 NE3       30.26R
PANAMA CITY NW PTSUNNY   57  35  43 NE8       30.22R
TYNDALL AFB    CLOUDY    57  37  46 E10       30.22R
TYND DRONE APT NOT AVBL
DE FUNIAK SPR  NOT AVBL
EGLIN AFB      PTSUNNY   57  33  40 NE12      30.22R
DESTIN         CLOUDY    60  39  45 NE7       30.23R
HURLBURT       CLOUDY    57  31  37 NE9       30.22R
CRESTVIEW      CLOUDY    55  37  50 NE3       30.26R
PENSACOLA      CLOUDY    57  35  43 NE8       30.22R
$$

!ALZ063-066-031600
...South Alabama...

CITY           SKY/WX    TMP DP  RH WIND       PRES   REMARKS
DOTHAN         CLOUDY    56  37  49 NE8       30.27F
OZARK CAIRNS   CLOUDY    54  37  52 NE8       30.25S
FT RUCKER HELI PTSUNNY   56  35  45 VRB6      30.24F
RUCKER HELI 3  NOT AVBL
RUCKER HELI 2  CLOUDY    56  35  45 NE7       30.25S
FLORALA APT    LGT RAIN  54  37  52 E6        30.27R
ANDALUSIA      CLOUDY    59  34  39 E6        30.25R
TROY           CLOUDY    56  35  45 VRB5      30.26F
EUFALA         PTSUNNY   57  36  45 NE7       30.25F
MOBILE         CLOUDY    55  40  56 NE10      30.20S
$$

!GAZ120>161-031600
...Southwest and South Central Georgia...

CITY           SKY/WX    TMP DP  RH WIND       PRES   REMARKS
THOMASVILLE    FAIR      59  37  44 E9        30.27R
BAINBRIDGE     CLOUDY    55  36  47 NE8       30.27R
MOODY AFB      CLOUDY    56  34  43 NE7       30.24R
VALDOSTA       CLOUDY    57  34  41 E9        30.25R
MOULTRIE       MOSUNNY   55  34  44 NE6       30.26S
BLAKELY        CLOUDY    59  34  38 NE5       30.27S
ALBANY         CLOUDY    55  35  47 NE8       30.30R
TIFTON         FAIR      53  36  50 NE7       30.25S
FITZGERALD     NOT AVBL
CORDELE        NOT AVBL
AMERICUS       FAIR      54  30  40 N6        30.28F
HOMERVILLE     FAIR      55  37  50 NE6       30.26R
$$

!GMZ750-755-770-775-031600
...Coastal and Buoy Obs...

STATION/POSITION TIME  TEMP    WIND        PRES    VSBY  WAVE
                       AIR SEA DIR/SP/G                  HT/PER
                 (UTC) (F)     (DEG/KT/KT) (MB)    (MI)  (FT/S)
KEATON BEACH     1500   57      70/  7/ 10 1023.4R
CEDAR KEY        1400   55      50/  9/ 12 1023.1R
C TOWER          1500   62      80/ 23/ 24 1023.3R
APALACHICOLA BUO 1450   67 74   90/ 19/ 25 1021.5R         6/ 6
PANAMA CITY BUOY 1450   69 75              1020.5R         7/ 7
MOBILE BUOY      1450   72 76  100/ 21/ 27 1019.8R         9/ 7
ORANGE BCH AL BU 1450   65 71   90/ 23/ 27 1022.0R         6/ 6
$$




USA.gov is the U.S. government's official web portal to all federal, state and local government web resources and services.